This demonstration page uses our WeatherBlox Daily Observations layout. Learn more.

Hourly Observations for May 8, 2018

Temp ( °F °C ) Dew Point ( °F °C ) Humidity (%) Winds ( mph kmh ) Pressure ( in mb ) Visibility ( mi km ) Precip ( " mm )
12:15 am 00:15 Partly Cloudy 59 15 55 13 88 88 Calm 30.18 1022 10 16.09344 0 0
12:40 am 00:40 Cloudy 57 14 55 13 94 94 Calm 30.18 1022 10 16.09344 0 0
12:55 am 00:55 Cloudy 59 15 57 14 94 94 Calm 30.18 1022 10 16.09344 0 0
1:15 am 01:15 Cloudy 59 15 55 13 88 88 Calm 30.18 1022 10 16.09344 0 0
1:35 am 01:35 Cloudy 59 15 57 14 94 94 Calm 30.18 1022 10 16.09344 0 0
1:55 am 01:55 Mostly Cloudy 57 14 55 13 94 94 Calm 30.18 1022 10 16.09344 0 0
2:15 am 02:15 Partly Cloudy 59 15 55 13 88 88 Calm 30.18 1022 10 16.09344 0 0
2:35 am 02:35 Clear 59 15 55 13 88 88 NE 3 6 30.18 1022 10 16.09344 0 0
2:55 am 02:55 Clear 57 14 55 13 94 94 Calm 30.18 1022 10 16.09344 0 0
3:15 am 03:15 Clear 55 13 55 13 100 100 Calm 30.18 1022 10 16.09344 0 0
3:35 am 03:35 Clear 55 13 54 12 94 94 Calm 30.18 1022 10 16.09344 0 0
3:55 am 03:55 Clear 54 12 54 12 100 100 Calm 30.18 1022 10 16.09344 0 0
4:15 am 04:15 Clear 54 12 54 12 100 100 Calm 30.18 1022 10 16.09344 0 0
4:35 am 04:35 Clear 52 11 52 11 100 100 Calm 30.21 1023 7 11.265408 0 0
4:55 am 04:55 Clear 54 12 54 12 100 100 NE 3 6 30.18 1022 10 16.09344 0 0
5:15 am 05:15 Clear 54 12 54 12 100 100 ENE 3 6 30.21 1023 10 16.09344 0 0
5:35 am 05:35 Clear 54 12 54 12 100 100 Calm 30.21 1023 10 16.09344 0 0
5:55 am 05:55 Clear 52 11 52 11 100 100 Calm 30.24 1024 10 16.09344 0 0
6:15 am 06:15 Sunny 52 11 52 11 100 100 Calm 30.24 1024 10 16.09344 0 0
6:35 am 06:35 Sunny 52 11 52 11 100 100 Calm 30.27 1025 10 16.09344 0 0
6:55 am 06:55 Sunny 54 12 54 12 100 100 Calm 30.24 1024 10 16.09344 0 0
7:15 am 07:15 Sunny 55 13 54 12 94 94 ENE 5 7 30.24 1024 10 16.09344 0 0
7:35 am 07:35 Sunny 55 13 54 12 94 94 E 5 7 30.24 1024 10 16.09344 0 0
7:55 am 07:55 Sunny 57 14 54 12 88 88 E 5 7 30.24 1024 10 16.09344 0 0
8:15 am 08:15 Sunny 59 15 54 12 82 82 Calm 30.27 1025 10 16.09344 0 0
8:35 am 08:35 Sunny 61 16 54 12 77 77 Calm 30.27 1025 10 16.09344 0 0
8:55 am 08:55 Sunny 61 16 54 12 77 77 SSE 3 6 30.27 1025 10 16.09344 0 0
9:15 am 09:15 Sunny 63 17 54 12 73 73 Calm 30.27 1025 10 16.09344 0 0
9:35 am 09:35 Sunny 64 18 54 12 68 68 Calm 30.27 1025 10 16.09344 0 0
9:55 am 09:55 Sunny 64 18 54 12 68 68 Calm 30.27 1025 10 16.09344 0 0
10:15 am 10:15 Sunny 66 19 55 13 68 68 NNE 5 7 30.24 1024 10 16.09344 0 0
10:35 am 10:35 Sunny 68 20 54 12 60 60 Calm 30.27 1025 10 16.09344 0 0
10:55 am 10:55 Sunny 70 21 54 12 57 57 ENE 7 11 30.27 1025 10 16.09344 0 0
11:15 am 11:15 Sunny 70 21 54 12 57 57 Calm 30.24 1024 10 16.09344 0 0
11:35 am 11:35 Sunny 70 21 54 12 57 57 E 7 11 30.24 1024 10 16.09344 0 0
11:55 am 11:55 Sunny 72 22 54 12 53 53 SSE 5 7 30.24 1024 10 16.09344 0 0
12:15 pm 12:15 Partly Cloudy 72 22 54 12 53 53 Calm 30.24 1024 10 16.09344 0 0
12:35 pm 12:35 Sunny 73 23 54 12 50 50 NE 7 11 30.24 1024 10 16.09344 0 0
12:55 pm 12:55 Sunny 73 23 52 11 47 47 SE 5 7 30.24 1024 10 16.09344 0 0
1:15 pm 13:15 Mostly Cloudy 73 23 52 11 47 47 Calm 30.24 1024 10 16.09344 0 0
1:35 pm 13:35 Mostly Cloudy 73 23 54 12 50 50 Calm 30.21 1023 10 16.09344 0 0
1:55 pm 13:55 Partly Cloudy 75 24 52 11 44 44 ESE 6 9 30.21 1023 10 16.09344 0 0
2:15 pm 14:15 Partly Cloudy 77 25 52 11 42 42 SSE 6 9 30.21 1023 10 16.09344 0 0
2:35 pm 14:35 Partly Cloudy 75 24 52 11 44 44 Calm 30.21 1023 10 16.09344 0 0
2:55 pm 14:55 Sunny 77 25 52 11 42 42 SSE 6 9 30.18 1022 10 16.09344 0 0
3:15 pm 15:15 Partly Cloudy 77 25 52 11 42 42 NE 6 9 30.18 1022 10 16.09344 0 0
3:35 pm 15:35 Partly Cloudy 75 24 50 10 41 41 ESE 5 7 30.18 1022 10 16.09344 0 0
3:55 pm 15:55 Partly Cloudy 77 25 50 10 39 39 Calm 30.18 1022 10 16.09344 0 0
4:15 pm 16:15 Partly Cloudy 77 25 50 10 39 39 S 9 15 30.18 1022 10 16.09344 0 0
4:35 pm 16:35 Partly Cloudy 77 25 50 10 39 39 E 7 11 30.15 1021 10 16.09344 0 0
4:55 pm 16:55 Sunny 77 25 50 10 39 39 SE 8 13 30.15 1021 10 16.09344 0 0
5:15 pm 17:15 Sunny 77 25 48 9 36 36 SE 6 9 30.15 1021 10 16.09344 0 0
5:35 pm 17:35 Sunny 77 25 50 10 39 39 E 5 7 30.15 1021 10 16.09344 0 0
5:55 pm 17:55 Sunny 77 25 48 9 36 36 SSE 8 13 30.15 1021 10 16.09344 0 0
6:15 pm 18:15 Sunny 77 25 50 10 39 39 SE 7 11 30.15 1021 10 16.09344 0 0
6:35 pm 18:35 Sunny 77 25 50 10 39 39 ESE 7 11 30.15 1021 10 16.09344 0 0
6:55 pm 18:55 Sunny 75 24 50 10 41 41 ESE 6 9 30.15 1021 10 16.09344 0 0
7:15 pm 19:15 Sunny 75 24 50 10 41 41 ESE 6 9 30.15 1021 10 16.09344 0 0
7:35 pm 19:35 Sunny 73 23 50 10 44 44 SSE 6 9 30.15 1021 10 16.09344 0 0
7:55 pm 19:55 Sunny 73 23 50 10 44 44 ESE 5 7 30.15 1021 10 16.09344 0 0
8:15 pm 20:15 Clear 72 22 50 10 47 47 SE 3 6 30.15 1021 10 16.09344 0 0
8:35 pm 20:35 Clear 72 22 50 10 47 47 SSE 5 7 30.15 1021 10 16.09344 0 0
8:55 pm 20:55 Clear 70 21 50 10 50 50 SSE 3 6 30.15 1021 10 16.09344 0 0
9:15 pm 21:15 Clear 70 21 50 10 50 50 SSE 3 6 30.18 1022 10 16.09344 0 0
9:35 pm 21:35 Clear 68 20 50 10 53 53 SSE 6 9 30.18 1022 10 16.09344 0 0
9:55 pm 21:55 Clear 70 21 50 10 50 50 SSE 6 9 30.18 1022 10 16.09344 0 0
10:15 pm 22:15 Clear 68 20 50 10 53 53 S 5 7 30.18 1022 10 16.09344 0 0
10:35 pm 22:35 Clear 64 18 50 10 60 60 Calm 30.18 1022 10 16.09344 0 0
10:59 pm 22:59 Clear 63 17 52 11 68 68 Calm 30.18 1022 10 16.09344 0 0
11:15 pm 23:15 Clear 63 17 50 10 64 64 Calm 30.18 1022 10 16.09344 0 0
11:35 pm 23:35 Clear 61 16 52 11 72 72 Calm 30.18 1022 10 16.09344 0 0
11:55 pm 23:55 Clear 61 16 52 11 72 72 Calm 30.18 1022 10 16.09344 0 0

Powered by AerisWeather